| time (UTC) | temp F | wind direction | speed MPH | gust MPH | rain 1hr in | rain 24hr in | rain mn in | humidity % | barometer mb |
| 20260503182802 | 74 | 225 | 4.0 | 4.0 | 0.00 | 0.00 | 0.00 | 56 | 1011.9 |
| 20260503175802 | 76 | 158 | 2.0 | 4.0 | 0.00 | 0.00 | 0.00 | 53 | 1012.2 |
| 20260503174302 | 74 | 90 | 0.0 | 2.0 | 0.00 | 0.00 | 0.00 | 56 | 1012.2 |
| 20260503172802 | 71 | 225 | 0.0 | 3.0 | 0.00 | 0.00 | 0.00 | 62 | 1012.2 |
| 20260503171302 | 70 | 203 | 1.0 | 3.0 | 0.00 | 0.00 | 0.00 | 60 | 1012.2 |
| 20260503131302 | 49 | 90 | 0.0 | 0.0 | 0.00 | 0.00 | 0.00 | 85 | 1012.5 |
| 20260503110302 | 51 | 180 | 0.0 | 0.0 | 0.00 | 0.00 | 0.00 | 85 | 1012.9 |
| 20260503080801 | 54 | 135 | 0.0 | 0.0 | 0.00 | 0.00 | 0.00 | 85 | 1013.2 |
| 20260503072305 | 54 | 158 | 0.0 | 0.0 | 0.00 | 0.00 | 0.00 | 85 | 1013.2 |
| 20260503070802 | 55 | 158 | 0.0 | 0.0 | 0.00 | 0.00 | 0.00 | 85 | 1013.2 |
| 20260503054302 | 58 | 113 | 0.0 | 0.0 | 0.00 | 0.00 | 0.00 | 85 | 1012.9 |
| 20260503052802 | 58 | 113 | 0.0 | 0.0 | 0.00 | 0.00 | 0.00 | 85 | 1012.9 |
| 20260503051302 | 59 | 113 | 0.0 | 0.0 | 0.00 | 0.00 | 0.00 | 83 | 1012.9 |
| 20260503045802 | 59 | 158 | 0.0 | 0.0 | 0.00 | 0.00 | 0.00 | 83 | 1012.9 |
| 20260503044302 | 60 | 135 | 0.0 | 0.0 | 0.00 | 0.00 | 0.00 | 82 | 1012.5 |
| 20260503041301 | 62 | 180 | 0.0 | 0.0 | 0.00 | 0.00 | 0.00 | 74 | 1012.2 |
| 20260503035802 | 63 | 135 | 0.0 | 0.0 | 0.00 | 0.00 | 0.00 | 72 | 1011.9 |
| 20260503032802 | 65 | 225 | 0.0 | 0.0 | 0.00 | 0.00 | 0.00 | 66 | 1011.5 |
| 20260503031303 | 67 | 68 | 0.0 | 0.0 | 0.00 | 0.00 | 0.00 | 65 | 1011.5 |
| 20260503024301 | 70 | 180 | 0.0 | 1.0 | 0.00 | 0.00 | 0.00 | 60 | 1011.2 |
| 20260503021301 | 71 | 203 | 2.0 | 3.0 | 0.00 | 0.00 | 0.00 | 56 | 1011.2 |
| 20260503015802 | 72 | 203 | 1.0 | 4.0 | 0.00 | 0.00 | 0.00 | 56 | 1011.2 |
| 20260503014302 | 74 | 225 | 1.0 | 2.0 | 0.00 | 0.00 | 0.00 | 53 | 1011.2 |
| 20260503012802 | 75 | 225 | 2.0 | 3.0 | 0.00 | 0.00 | 0.00 | 51 | 1011.2 |
| 20260503011302 | 76 | 203 | 2.0 | 2.0 | 0.00 | 0.00 | 0.00 | 51 | 1011.2 |
| 20260503005801 | 75 | 113 | 2.0 | 4.0 | 0.00 | 0.00 | 0.00 | 52 | 1011.2 |
| 20260503004302 | 76 | 248 | 1.0 | 3.0 | 0.00 | 0.00 | 0.00 | 52 | 1011.2 |
| 20260503002802 | 77 | 225 | 3.0 | 3.0 | 0.00 | 0.00 | 0.00 | 51 | 1011.2 |
| 20260503001302 | 75 | 203 | 2.0 | 4.0 | 0.00 | 0.00 | 0.00 | 53 | 1011.5 |
| 20260502235802 | 77 | 0 | 2.0 | 3.0 | 0.00 | 0.00 | 0.00 | 53 | 1011.5 |
| 20260502234801 | 76 | 158 | 3.0 | 3.0 | 0.00 | 0.00 | 0.00 | 53 | 1011.5 |
| 20260502233302 | 75 | 158 | 2.0 | 3.0 | 0.00 | 0.00 | 0.00 | 54 | 1011.5 |
| 20260502231802 | 77 | 248 | 2.0 | 4.0 | 0.00 | 0.00 | 0.00 | 53 | 1011.9 |
| 20260502224802 | 76 | 315 | 4.0 | 4.0 | 0.00 | 0.00 | 0.00 | 53 | 1012.2 |
| 20260502223303 | 76 | 203 | 2.0 | 4.0 | 0.00 | 0.00 | 0.00 | 52 | 1012.5 |
| 20260502221803 | 75 | 270 | 2.0 | 5.0 | 0.00 | 0.00 | 0.00 | 56 | 1012.5 |
| 20260502220302 | 74 | 180 | 2.0 | 4.0 | 0.00 | 0.00 | 0.00 | 57 | 1012.9 |
| 20260502214802 | 73 | 203 | 2.0 | 3.0 | 0.00 | 0.00 | 0.00 | 57 | 1012.9 |
| 20260502211802 | 73 | 203 | 2.0 | 4.0 | 0.00 | 0.00 | 0.00 | 60 | 1013.2 |
| 20260502204801 | 71 | 248 | 1.0 | 4.0 | 0.00 | 0.00 | 0.00 | 60 | 1013.5 |
| 20260502203302 | 71 | 293 | 4.0 | 4.0 | 0.00 | 0.00 | 0.00 | 60 | 1013.5 |
| 20260502201802 | 69 | 180 | 2.0 | 3.0 | 0.00 | 0.00 | 0.00 | 63 | 1013.5 |
| 20260502200302 | 68 | 270 | 3.0 | 3.0 | 0.00 | 0.00 | 0.00 | 63 | 1013.9 |
| 20260502194802 | 70 | 23 | 2.0 | 4.0 | 0.00 | 0.00 | 0.00 | 60 | 1013.9 |
| 20260502193302 | 68 | 203 | 2.0 | 4.0 | 0.00 | 0.00 | 0.00 | 63 | 1014.2 |
| 20260502191802 | 68 | 0 | 3.0 | 4.0 | 0.00 | 0.00 | 0.00 | 62 | 1014.2 |
| 20260502190302 | 67 | 338 | 3.0 | 4.0 | 0.00 | 0.00 | 0.00 | 66 | 1014.6 |
| 20260502184802 | 65 | 203 | 3.0 | 3.0 | 0.00 | 0.00 | 0.00 | 66 | 1014.6 |